This is the latest recevied weather packets stored in our database for station/object JF2ZGN-13. If no packets are shown the sender has not sent any weather packets the latest 10 day(s).
| Time | Temp. | Humidity | Pressure | Rain* | Wind** | Luminosity | Snow |
|---|---|---|---|---|---|---|---|
| 1788160397 | 70° F | 85% | 683.5 mmHg | 0 in | - | - | - |
| 1788159797 | 71° F | 85% | 683.4 mmHg | 0 in | - | - | - |
| 1788159197 | 71° F | 86% | 683.2 mmHg | 0 in | - | - | - |
| 1788158596 | 70° F | 88% | 683.4 mmHg | 0 in | - | - | - |
| 1788157996 | 70° F | 86% | 683.3 mmHg | 0 in | - | - | - |
| 1788157395 | 70° F | 86% | 683.1 mmHg | 0 in | - | - | - |
| 1788156796 | 71° F | 86% | 683.3 mmHg | 0 in | - | - | - |
| 1788156194 | 70° F | 89% | 683.3 mmHg | 0 in | - | - | - |
| 1788155593 | 69° F | 87% | 683.2 mmHg | 0 in | - | - | - |
| 1788154993 | 71° F | 84% | 683.4 mmHg | 0 in | - | - | - |
| 1788154392 | 72° F | 83% | 683.2 mmHg | 0 in | - | - | - |
| 1788153792 | 72° F | 81% | 683.4 mmHg | 0 in | - | - | - |
| 1788153191 | 72° F | 82% | 683.4 mmHg | 0 in | - | - | - |
| 1788151990 | 72° F | 82% | 683.4 mmHg | 0 in | - | - | - |
| 1788151390 | 72° F | 82% | 683.5 mmHg | 0 in | - | - | - |
| 1788150790 | 72° F | 80% | 683.2 mmHg | 0 in | - | - | - |
| 1788150189 | 72° F | 80% | 683.4 mmHg | 0 in | - | - | - |
| 1788149589 | 72° F | 79% | 683.2 mmHg | 0 in | - | - | - |
| 1788148989 | 72° F | 78% | 683.3 mmHg | 0 in | - | - | - |
| 1788148388 | 71° F | 80% | 683.5 mmHg | 0 in | - | - | - |
| 1788147787 | 71° F | 79% | 683.5 mmHg | 0 in | - | - | - |
| 1788147187 | 71° F | 79% | 683.3 mmHg | 0 in | - | - | - |
| 1788146586 | 71° F | 78% | 683.5 mmHg | 0 in | - | - | - |
| 1788145986 | 72° F | 76% | 683.5 mmHg | 0 in | - | - | - |
| 1788145386 | 74° F | 74% | 683.5 mmHg | 0 in | - | - | - |
* Rain since midnight (hover to see other rain measurements)
** Current wind speed in m/s (hover to see current wind gust speed)